{"data":{"norad_id":58663,"epoch":"2026-09-19T22:23:21.463584Z","epoch_age_seconds":63353,"freshness":"FRESH","line1":"1 58663U 23208D   26262.93288731  .00005221  00000+0  17027-3 0  9991","line2":"2 58663  97.4570  19.6952 0003858  26.1448 333.9988 15.32238240151834","mean_motion":15.3223824,"eccentricity":0.0003858,"inclination_deg":97.457,"raan_deg":19.6952,"arg_perigee_deg":26.1448,"mean_anomaly_deg":333.9988,"bstar":0.00017027,"rev_number":15183,"period_min":93.980163293666,"perigee_km":466.49432156497,"apogee_km":471.77767741137,"semimajor_km":6847.2729994882,"source":"CELESTRAK","updated_at":"2026-09-20T09:00:33.255722Z"}}